contact:dominique.lefevre@mio.osupytheas.fr, maurice.libes@osupytheas.fr, didier.mallarino@osupytheas.fr
Project:EMSO http://www.emso-fr.org/EMSO-France
Depth: 2436.0 m
Title:EMSO Ligure Ouest : Data MII capteur MICROCAT
DateTime_Computer,Latitude,Longitude,Temperature,Conductivity,Pressure,DateTime_Instrument
DateTime_Computer,Latitude,Longitude,degC,S m-1,dbar,DateTime_Instrument
2020-03-27T00:00:54Z,42.805,6.029,13.2964,4.59974,2469.97,2020-3-27T02:01:32Z
2020-03-27T00:03:57Z,42.805,6.029,13.2964,4.59979,2469.97,2020-3-27T02:04:35Z
2020-03-27T00:07:01Z,42.805,6.029,13.2967,4.59976,2469.97,2020-3-27T02:07:39Z
2020-03-27T00:10:04Z,42.805,6.029,13.2964,4.59981,2469.97,2020-3-27T02:10:42Z
2020-03-27T00:13:07Z,42.805,6.029,13.2964,4.59975,2469.947,2020-3-27T02:13:45Z
2020-03-27T00:16:10Z,42.805,6.029,13.2966,4.59972,2469.97,2020-3-27T02:16:48Z
2020-03-27T00:19:14Z,42.805,6.029,13.2966,4.59973,2469.947,2020-3-27T02:19:52Z
2020-03-27T00:22:17Z,42.805,6.029,13.2966,4.59976,2469.923,2020-3-27T02:22:55Z
2020-03-27T00:25:20Z,42.805,6.029,13.2966,4.59978,2469.923,2020-3-27T02:25:58Z
2020-03-27T00:28:23Z,42.805,6.029,13.2966,4.59980,2469.96,2020-3-27T02:29:01Z
2020-03-27T00:31:27Z,42.805,6.029,13.2959,4.59975,2469.96,2020-3-27T02:32:05Z
2020-03-27T00:34:30Z,42.805,6.029,13.2967,4.59973,2469.96,2020-3-27T02:35:08Z
2020-03-27T00:37:33Z,42.805,6.029,13.2968,4.59976,2469.947,2020-3-27T02:38:11Z
2020-03-27T00:40:36Z,42.805,6.029,13.2967,4.59972,2469.923,2020-3-27T02:41:14Z
2020-03-27T00:43:39Z,42.805,6.029,13.2968,4.59973,2469.923,2020-3-27T02:44:17Z
2020-03-27T00:46:43Z,42.805,6.029,13.2964,4.59973,2469.923,2020-3-27T02:47:21Z
2020-03-27T00:49:46Z,42.805,6.029,13.2966,4.59976,2469.923,2020-3-27T02:50:24Z
2020-03-27T00:52:49Z,42.805,6.029,13.2964,4.59973,2469.984,2020-3-27T02:53:27Z
2020-03-27T00:55:53Z,42.805,6.029,13.2966,4.59973,2469.96,2020-3-27T02:56:31Z
2020-03-27T00:58:56Z,42.805,6.029,13.2965,4.59974,2469.923,2020-3-27T02:59:34Z
2020-03-27T01:01:59Z,42.805,6.029,13.2966,4.59972,2469.947,2020-3-27T03:02:37Z
2020-03-27T01:05:03Z,42.805,6.029,13.2967,4.59974,2469.923,2020-3-27T03:05:41Z
2020-03-27T01:08:06Z,42.805,6.029,13.2968,4.59973,2469.923,2020-3-27T03:08:44Z
2020-03-27T01:11:09Z,42.805,6.029,13.2967,4.59976,2469.937,2020-3-27T03:11:47Z
2020-03-27T01:14:12Z,42.805,6.029,13.2965,4.59981,2469.923,2020-3-27T03:14:51Z
2020-03-27T01:17:16Z,42.805,6.029,13.2965,4.59974,2469.923,2020-3-27T03:17:54Z
2020-03-27T01:20:19Z,42.805,6.029,13.2965,4.59972,2469.923,2020-3-27T03:20:57Z
2020-03-27T01:23:22Z,42.805,6.029,13.2968,4.59972,2469.923,2020-3-27T03:24:00Z
2020-03-27T01:26:25Z,42.805,6.029,13.2966,4.59973,2469.9,2020-3-27T03:27:04Z
2020-03-27T01:29:29Z,42.805,6.029,13.2970,4.59976,2469.914,2020-3-27T03:30:07Z
2020-03-27T01:32:32Z,42.805,6.029,13.2967,4.59975,2469.876,2020-3-27T03:33:10Z
2020-03-27T01:35:35Z,42.805,6.029,13.2964,4.59977,2469.914,2020-3-27T03:36:13Z
2020-03-27T01:38:38Z,42.805,6.029,13.2966,4.59975,2469.937,2020-3-27T03:39:16Z
2020-03-27T01:41:42Z,42.805,6.029,13.2964,4.59973,2469.886,2020-3-27T03:42:20Z
2020-03-27T01:44:45Z,42.805,6.029,13.2968,4.59973,2469.914,2020-3-27T03:45:23Z
2020-03-27T01:47:48Z,42.805,6.029,13.2966,4.59973,2469.9,2020-3-27T03:48:26Z
2020-03-27T01:50:51Z,42.805,6.029,13.2966,4.59978,2469.923,2020-3-27T03:51:29Z
2020-03-27T01:53:55Z,42.805,6.029,13.2963,4.59973,2469.937,2020-3-27T03:54:33Z
2020-03-27T01:56:58Z,42.805,6.029,13.2968,4.59973,2469.937,2020-3-27T03:57:36Z
2020-03-27T02:00:01Z,42.805,6.029,13.2965,4.59974,2469.9,2020-3-27T04:00:39Z
2020-03-27T02:03:05Z,42.805,6.029,13.2965,4.59978,2469.923,2020-3-27T04:03:43Z
2020-03-27T02:06:08Z,42.805,6.029,13.2965,4.59978,2469.923,2020-3-27T04:06:46Z
2020-03-27T02:09:11Z,42.805,6.029,13.2965,4.59975,2469.9,2020-3-27T04:09:49Z
2020-03-27T02:12:14Z,42.805,6.029,13.2968,4.59971,2469.876,2020-3-27T04:12:53Z
2020-03-27T02:15:18Z,42.805,6.029,13.2966,4.59972,2469.876,2020-3-27T04:15:56Z
2020-03-27T02:18:21Z,42.805,6.029,13.2970,4.59972,2469.876,2020-3-27T04:18:59Z
2020-03-27T02:21:24Z,42.805,6.029,13.2963,4.59971,2469.914,2020-3-27T04:22:02Z
2020-03-27T02:24:27Z,42.805,6.029,13.2964,4.59973,2469.876,2020-3-27T04:25:05Z
2020-03-27T02:27:31Z,42.805,6.029,13.2966,4.59973,2469.9,2020-3-27T04:28:09Z
2020-03-27T02:30:34Z,42.805,6.029,13.2964,4.59973,2469.9,2020-3-27T04:31:12Z
2020-03-27T02:33:37Z,42.805,6.029,13.2964,4.59973,2469.923,2020-3-27T04:34:15Z
2020-03-27T02:36:40Z,42.805,6.029,13.2965,4.59978,2469.876,2020-3-27T04:37:18Z
2020-03-27T02:39:44Z,42.805,6.029,13.2966,4.59980,2469.89,2020-3-27T04:40:22Z
2020-03-27T02:42:47Z,42.805,6.029,13.2967,4.59981,2469.914,2020-3-27T04:43:25Z
2020-03-27T02:45:50Z,42.805,6.029,13.2966,4.59978,2469.9,2020-3-27T04:46:28Z
2020-03-27T02:48:53Z,42.805,6.029,13.2965,4.59976,2469.89,2020-3-27T04:49:31Z
2020-03-27T02:51:57Z,42.805,6.029,13.2967,4.59978,2469.876,2020-3-27T04:52:35Z
2020-03-27T02:55:00Z,42.805,6.029,13.2968,4.59978,2469.914,2020-3-27T04:55:38Z
2020-03-27T02:58:03Z,42.805,6.029,13.2962,4.59976,2469.937,2020-3-27T04:58:41Z
2020-03-27T03:01:06Z,42.805,6.029,13.2966,4.59983,2469.89,2020-3-27T05:01:44Z
2020-03-27T03:04:09Z,42.805,6.029,13.2968,4.59983,2469.923,2020-3-27T05:04:48Z
2020-03-27T03:07:13Z,42.805,6.029,13.2968,4.59986,2469.89,2020-3-27T05:07:51Z
2020-03-27T03:10:16Z,42.805,6.029,13.2966,4.59983,2469.947,2020-3-27T05:10:54Z
2020-03-27T03:13:19Z,42.805,6.029,13.2969,4.59994,2469.914,2020-3-27T05:13:57Z
2020-03-27T03:16:22Z,42.805,6.029,13.2965,4.59994,2469.876,2020-3-27T05:17:00Z
2020-03-27T03:19:26Z,42.805,6.029,13.2967,4.59992,2469.9,2020-3-27T05:20:04Z
2020-03-27T03:22:29Z,42.805,6.029,13.2968,4.59988,2469.937,2020-3-27T05:23:07Z
2020-03-27T03:25:32Z,42.805,6.029,13.2968,4.59994,2469.914,2020-3-27T05:26:10Z
2020-03-27T03:28:35Z,42.805,6.029,13.2968,4.59986,2469.914,2020-3-27T05:29:14Z
2020-03-27T03:31:39Z,42.805,6.029,13.2967,4.59994,2469.914,2020-3-27T05:32:17Z
2020-03-27T03:34:42Z,42.805,6.029,13.2967,4.59994,2469.914,2020-3-27T05:35:20Z
2020-03-27T03:37:45Z,42.805,6.029,13.2967,4.59995,2469.89,2020-3-27T05:38:23Z
2020-03-27T03:40:48Z,42.805,6.029,13.2968,4.60004,2469.914,2020-3-27T05:41:26Z
2020-03-27T03:43:52Z,42.805,6.029,13.2965,4.59990,2469.9,2020-3-27T05:44:30Z
2020-03-27T03:46:55Z,42.805,6.029,13.2964,4.59984,2469.914,2020-3-27T05:47:33Z
2020-03-27T03:49:58Z,42.805,6.029,13.3040,4.59989,2469.89,2020-3-27T05:50:36Z
2020-03-27T03:53:02Z,42.805,6.029,13.3021,4.60001,2469.9,2020-3-27T05:53:40Z
2020-03-27T03:56:05Z,42.805,6.029,13.3017,4.59994,2469.937,2020-3-27T05:56:43Z
2020-03-27T03:59:08Z,42.805,6.029,13.2982,4.59999,2469.937,2020-3-27T05:59:46Z
2020-03-27T04:02:11Z,42.805,6.029,13.2971,4.60004,2469.914,2020-3-27T06:02:49Z
2020-03-27T04:05:15Z,42.805,6.029,13.2993,4.60006,2469.937,2020-3-27T06:05:53Z
2020-03-27T04:08:18Z,42.805,6.029,13.3019,4.60003,2469.937,2020-3-27T06:08:56Z
2020-03-27T04:11:21Z,42.805,6.029,13.3001,4.60002,2469.909,2020-3-27T06:11:59Z
2020-03-27T04:14:24Z,42.805,6.029,13.2969,4.60000,2469.9,2020-3-27T06:15:02Z
2020-03-27T04:17:27Z,42.805,6.029,13.2965,4.59999,2469.9,2020-3-27T06:18:06Z
2020-03-27T04:20:31Z,42.805,6.029,13.2970,4.59988,2469.914,2020-3-27T06:21:09Z
2020-03-27T04:23:34Z,42.805,6.029,13.2968,4.59979,2469.914,2020-3-27T06:24:12Z
2020-03-27T04:26:37Z,42.805,6.029,13.2966,4.59984,2469.876,2020-3-27T06:27:15Z
2020-03-27T04:29:40Z,42.805,6.029,13.2967,4.59978,2469.937,2020-3-27T06:30:18Z
2020-03-27T04:32:44Z,42.805,6.029,13.2967,4.59972,2469.9,2020-3-27T06:33:22Z
2020-03-27T04:35:47Z,42.805,6.029,13.2968,4.59971,2469.923,2020-3-27T06:36:25Z
2020-03-27T04:38:50Z,42.805,6.029,13.2967,4.59972,2469.9,2020-3-27T06:39:28Z
2020-03-27T04:41:53Z,42.805,6.029,13.2968,4.59971,2469.923,2020-3-27T06:42:31Z
2020-03-27T04:44:57Z,42.805,6.029,13.2965,4.59975,2469.9,2020-3-27T06:45:35Z
2020-03-27T04:48:00Z,42.805,6.029,13.2968,4.59973,2469.923,2020-3-27T06:48:38Z
2020-03-27T04:51:03Z,42.805,6.029,13.2967,4.59970,2469.947,2020-3-27T06:51:41Z
2020-03-27T04:54:06Z,42.805,6.029,13.2966,4.59973,2469.984,2020-3-27T06:54:44Z
2020-03-27T04:57:10Z,42.805,6.029,13.2963,4.59973,2469.937,2020-3-27T06:57:48Z
2020-03-27T05:00:13Z,42.805,6.029,13.2970,4.59971,2469.96,2020-3-27T07:00:51Z
2020-03-27T05:03:16Z,42.805,6.029,13.2966,4.59970,2469.937,2020-3-27T07:03:54Z
2020-03-27T05:06:19Z,42.805,6.029,13.2965,4.59971,2469.947,2020-3-27T07:06:57Z
2020-03-27T05:09:22Z,42.805,6.029,13.2972,4.59970,2469.923,2020-3-27T07:10:01Z
2020-03-27T05:12:26Z,42.805,6.029,13.2969,4.59971,2469.96,2020-3-27T07:13:04Z
2020-03-27T05:15:29Z,42.805,6.029,13.2965,4.59969,2469.923,2020-3-27T07:16:07Z
2020-03-27T05:18:32Z,42.805,6.029,13.2965,4.59968,2469.923,2020-3-27T07:19:10Z
2020-03-27T05:21:35Z,42.805,6.029,13.2968,4.59970,2469.947,2020-3-27T07:22:14Z
2020-03-27T05:24:39Z,42.805,6.029,13.2965,4.59970,2469.947,2020-3-27T07:25:17Z
2020-03-27T05:27:42Z,42.805,6.029,13.2968,4.59974,2469.984,2020-3-27T07:28:20Z
2020-03-27T05:30:45Z,42.805,6.029,13.2967,4.59971,2469.96,2020-3-27T07:31:23Z
2020-03-27T05:33:48Z,42.805,6.029,13.2968,4.59971,2469.96,2020-3-27T07:34:26Z
2020-03-27T05:36:52Z,42.805,6.029,13.2965,4.59971,2469.96,2020-3-27T07:37:30Z
2020-03-27T05:39:55Z,42.805,6.029,13.2966,4.59969,2469.97,2020-3-27T07:40:33Z
2020-03-27T05:42:58Z,42.805,6.029,13.2964,4.59972,2469.97,2020-3-27T07:43:36Z
2020-03-27T05:46:02Z,42.805,6.029,13.2967,4.59972,2469.937,2020-3-27T07:46:40Z
2020-03-27T05:49:05Z,42.805,6.029,13.2966,4.59978,2469.947,2020-3-27T07:49:43Z
2020-03-27T05:52:08Z,42.805,6.029,13.2963,4.59973,2469.947,2020-3-27T07:52:46Z
2020-03-27T05:55:11Z,42.805,6.029,13.2968,4.59975,2469.97,2020-3-27T07:55:49Z
2020-03-27T05:58:14Z,42.805,6.029,13.2971,4.59974,2469.984,2020-3-27T07:58:53Z
2020-03-27T06:01:18Z,42.805,6.029,13.2964,4.59975,2470.007,2020-3-27T08:01:56Z
2020-03-27T06:04:21Z,42.805,6.029,13.2971,4.59976,2469.97,2020-3-27T08:04:59Z
2020-03-27T06:07:24Z,42.805,6.029,13.2966,4.59978,2470.007,2020-3-27T08:08:02Z
2020-03-27T06:10:27Z,42.805,6.029,13.2965,4.59973,2470.007,2020-3-27T08:11:06Z
2020-03-27T06:13:31Z,42.805,6.029,13.2966,4.59979,2469.993,2020-3-27T08:14:09Z
2020-03-27T06:16:34Z,42.805,6.029,13.2967,4.59974,2470.017,2020-3-27T08:17:12Z
2020-03-27T06:19:37Z,42.805,6.029,13.2964,4.59977,2469.984,2020-3-27T08:20:15Z
2020-03-27T06:22:40Z,42.805,6.029,13.2967,4.59976,2469.984,2020-3-27T08:23:18Z
2020-03-27T06:25:43Z,42.805,6.029,13.2968,4.59976,2470.03,2020-3-27T08:26:22Z
2020-03-27T06:28:47Z,42.805,6.029,13.2967,4.59979,2470.007,2020-3-27T08:29:25Z
2020-03-27T06:31:50Z,42.805,6.029,13.2969,4.59982,2469.97,2020-3-27T08:32:28Z
2020-03-27T06:34:53Z,42.805,6.029,13.2967,4.59975,2470.007,2020-3-27T08:35:32Z
2020-03-27T06:37:57Z,42.805,6.029,13.2961,4.59973,2470.017,2020-3-27T08:38:35Z
2020-03-27T06:41:00Z,42.805,6.029,13.2967,4.59977,2470.017,2020-3-27T08:41:38Z
2020-03-27T06:44:03Z,42.805,6.029,13.2968,4.59978,2469.993,2020-3-27T08:44:41Z
2020-03-27T06:47:06Z,42.805,6.029,13.2968,4.59977,2470.007,2020-3-27T08:47:45Z
2020-03-27T06:50:10Z,42.805,6.029,13.2964,4.59986,2470.017,2020-3-27T08:50:48Z
2020-03-27T06:53:13Z,42.805,6.029,13.2964,4.59980,2470.04,2020-3-27T08:53:51Z
2020-03-27T06:56:16Z,42.805,6.029,13.2968,4.59972,2470.04,2020-3-27T08:56:54Z
2020-03-27T06:59:20Z,42.805,6.029,13.2967,4.59978,2470.04,2020-3-27T08:59:58Z
2020-03-27T07:02:23Z,42.805,6.029,13.2967,4.59977,2470.03,2020-3-27T09:03:01Z
2020-03-27T07:05:26Z,42.805,6.029,13.2967,4.59979,2470.017,2020-3-27T09:06:04Z
2020-03-27T07:08:29Z,42.805,6.029,13.2967,4.59987,2470.03,2020-3-27T09:09:07Z
2020-03-27T07:11:32Z,42.805,6.029,13.2967,4.59983,2470.04,2020-3-27T09:12:11Z
2020-03-27T07:14:36Z,42.805,6.029,13.2966,4.59995,2469.993,2020-3-27T09:15:14Z
2020-03-27T07:17:39Z,42.805,6.029,13.2968,4.59988,2470.04,2020-3-27T09:18:17Z
2020-03-27T07:20:42Z,42.805,6.029,13.2966,4.59994,2470.063,2020-3-27T09:21:20Z
2020-03-27T07:23:45Z,42.805,6.029,13.2968,4.59983,2470.063,2020-3-27T09:24:24Z
2020-03-27T07:26:49Z,42.805,6.029,13.2967,4.59978,2470.026,2020-3-27T09:27:27Z
2020-03-27T07:29:52Z,42.805,6.029,13.2963,4.59982,2470.063,2020-3-27T09:30:30Z
2020-03-27T07:32:55Z,42.805,6.029,13.2966,4.59976,2470.087,2020-3-27T09:33:33Z
2020-03-27T07:35:59Z,42.805,6.029,13.2967,4.59981,2470.063,2020-3-27T09:36:37Z
2020-03-27T07:39:02Z,42.805,6.029,13.2974,4.59984,2470.1,2020-3-27T09:39:40Z
2020-03-27T07:42:05Z,42.805,6.029,13.2964,4.59982,2470.053,2020-3-27T09:42:43Z
2020-03-27T07:45:08Z,42.805,6.029,13.2967,4.59985,2470.04,2020-3-27T09:45:47Z
2020-03-27T07:48:12Z,42.805,6.029,13.2969,4.59991,2470.087,2020-3-27T09:48:50Z
2020-03-27T07:51:15Z,42.805,6.029,13.2967,4.59990,2470.063,2020-3-27T09:51:53Z
2020-03-27T07:54:19Z,42.805,6.029,13.2966,4.59995,2470.077,2020-3-27T09:54:57Z
2020-03-27T07:57:22Z,42.805,6.029,13.2967,4.59991,2470.063,2020-3-27T09:58:00Z
2020-03-27T08:00:25Z,42.805,6.029,13.2969,4.59987,2470.087,2020-3-27T10:01:03Z
2020-03-27T08:03:28Z,42.805,6.029,13.2968,4.59986,2470.087,2020-3-27T10:04:06Z
2020-03-27T08:06:32Z,42.805,6.029,13.2966,4.59997,2470.087,2020-3-27T10:07:10Z
2020-03-27T08:09:35Z,42.805,6.029,13.2969,4.59989,2470.077,2020-3-27T10:10:13Z
2020-03-27T08:12:38Z,42.805,6.029,13.2965,4.59984,2470.087,2020-3-27T10:13:16Z
2020-03-27T08:15:41Z,42.805,6.029,13.2969,4.59990,2470.063,2020-3-27T10:16:19Z
2020-03-27T08:18:45Z,42.805,6.029,13.2969,4.59982,2470.1,2020-3-27T10:19:23Z
2020-03-27T08:21:48Z,42.805,6.029,13.2970,4.59991,2470.087,2020-3-27T10:22:26Z
2020-03-27T08:24:51Z,42.805,6.029,13.2974,4.59986,2470.087,2020-3-27T10:25:29Z
2020-03-27T08:27:54Z,42.805,6.029,13.2971,4.59992,2470.077,2020-3-27T10:28:32Z
2020-03-27T08:30:58Z,42.805,6.029,13.2998,4.59992,2470.1,2020-3-27T10:31:36Z
2020-03-27T08:34:01Z,42.805,6.029,13.2968,4.59993,2470.133,2020-3-27T10:34:39Z
2020-03-27T08:37:04Z,42.805,6.029,13.2969,4.59984,2470.073,2020-3-27T10:37:42Z
2020-03-27T08:40:08Z,42.805,6.029,13.2962,4.59989,2470.087,2020-3-27T10:40:46Z
2020-03-27T08:43:11Z,42.805,6.029,13.2969,4.60001,2470.1,2020-3-27T10:43:49Z
2020-03-27T08:46:14Z,42.805,6.029,13.2971,4.59989,2470.1,2020-3-27T10:46:52Z
2020-03-27T08:49:17Z,42.805,6.029,13.3012,4.59994,2470.124,2020-3-27T10:49:55Z
2020-03-27T08:52:21Z,42.805,6.029,13.2971,4.59999,2470.1,2020-3-27T10:52:59Z
2020-03-27T08:55:24Z,42.805,6.029,13.2971,4.59984,2470.1,2020-3-27T10:56:02Z
2020-03-27T08:58:27Z,42.805,6.029,13.2972,4.60006,2470.124,2020-3-27T10:59:05Z
2020-03-27T09:01:30Z,42.805,6.029,13.2976,4.59998,2470.11,2020-3-27T11:02:09Z
2020-03-27T09:04:34Z,42.805,6.029,13.2979,4.60010,2470.1,2020-3-27T11:05:12Z
2020-03-27T09:07:37Z,42.805,6.029,13.2974,4.59997,2470.087,2020-3-27T11:08:15Z
2020-03-27T09:10:40Z,42.805,6.029,13.2967,4.59987,2470.11,2020-3-27T11:11:18Z
2020-03-27T09:13:43Z,42.805,6.029,13.2968,4.60013,2470.077,2020-3-27T11:14:21Z
2020-03-27T09:16:47Z,42.805,6.029,13.2968,4.60001,2470.077,2020-3-27T11:17:25Z
2020-03-27T09:19:50Z,42.805,6.029,13.2972,4.59991,2470.11,2020-3-27T11:20:28Z
2020-03-27T09:22:53Z,42.805,6.029,13.2973,4.59990,2470.087,2020-3-27T11:23:31Z
2020-03-27T09:25:57Z,42.805,6.029,13.2970,4.59986,2470.124,2020-3-27T11:26:35Z
2020-03-27T09:29:00Z,42.805,6.029,13.2969,4.59981,2470.087,2020-3-27T11:29:38Z
2020-03-27T09:32:03Z,42.805,6.029,13.2967,4.59985,2470.147,2020-3-27T11:32:41Z
2020-03-27T09:35:06Z,42.805,6.029,13.2967,4.59985,2470.087,2020-3-27T11:35:44Z
2020-03-27T09:38:10Z,42.805,6.029,13.2967,4.59981,2470.124,2020-3-27T11:38:48Z
2020-03-27T09:41:13Z,42.805,6.029,13.2972,4.59992,2470.11,2020-3-27T11:41:51Z
2020-03-27T09:44:16Z,42.805,6.029,13.2971,4.59991,2470.077,2020-3-27T11:44:54Z
2020-03-27T09:47:19Z,42.805,6.029,13.2974,4.59981,2470.124,2020-3-27T11:47:57Z
2020-03-27T09:50:23Z,42.805,6.029,13.2968,4.59986,2470.1,2020-3-27T11:51:01Z
2020-03-27T09:53:26Z,42.805,6.029,13.2970,4.59981,2470.087,2020-3-27T11:54:04Z
2020-03-27T09:56:29Z,42.805,6.029,13.2968,4.59983,2470.124,2020-3-27T11:57:07Z
2020-03-27T09:59:32Z,42.805,6.029,13.2968,4.59974,2470.063,2020-3-27T12:00:10Z
2020-03-27T10:02:36Z,42.805,6.029,13.2965,4.59981,2470.087,2020-3-27T12:03:14Z
2020-03-27T10:05:39Z,42.805,6.029,13.2970,4.59986,2470.1,2020-3-27T12:06:17Z
2020-03-27T10:08:42Z,42.805,6.029,13.2966,4.59985,2470.087,2020-3-27T12:09:20Z
2020-03-27T10:11:45Z,42.805,6.029,13.2966,4.59978,2470.1,2020-3-27T12:12:23Z
2020-03-27T10:14:49Z,42.805,6.029,13.2967,4.59983,2470.1,2020-3-27T12:15:27Z
2020-03-27T10:17:52Z,42.805,6.029,13.2969,4.59994,2470.1,2020-3-27T12:18:30Z
2020-03-27T10:20:55Z,42.805,6.029,13.2967,4.59986,2470.063,2020-3-27T12:21:33Z
2020-03-27T10:23:58Z,42.805,6.029,13.2969,4.59980,2470.1,2020-3-27T12:24:36Z
2020-03-27T10:27:01Z,42.805,6.029,13.2967,4.59981,2470.077,2020-3-27T12:27:39Z
2020-03-27T10:30:05Z,42.805,6.029,13.2967,4.59979,2470.087,2020-3-27T12:30:43Z
2020-03-27T10:33:08Z,42.805,6.029,13.2967,4.59996,2470.1,2020-3-27T12:33:46Z
2020-03-27T10:36:11Z,42.805,6.029,13.2970,4.59983,2470.063,2020-3-27T12:36:49Z
2020-03-27T10:39:15Z,42.805,6.029,13.2969,4.59986,2470.053,2020-3-27T12:39:53Z
2020-03-27T10:42:18Z,42.805,6.029,13.2964,4.59979,2470.077,2020-3-27T12:42:56Z
2020-03-27T10:45:21Z,42.805,6.029,13.2967,4.59978,2470.087,2020-3-27T12:45:59Z
2020-03-27T10:48:24Z,42.805,6.029,13.2966,4.59973,2470.063,2020-3-27T12:49:02Z
2020-03-27T10:51:27Z,42.805,6.029,13.2964,4.59976,2470.1,2020-3-27T12:52:06Z
2020-03-27T10:54:31Z,42.805,6.029,13.2967,4.59971,2470.04,2020-3-27T12:55:09Z
2020-03-27T10:57:34Z,42.805,6.029,13.2964,4.59972,2470.053,2020-3-27T12:58:12Z
2020-03-27T11:00:37Z,42.805,6.029,13.2961,4.59972,2470.04,2020-3-27T13:01:15Z
2020-03-27T11:03:40Z,42.805,6.029,13.2971,4.59973,2470.04,2020-3-27T13:04:18Z
2020-03-27T11:06:44Z,42.805,6.029,13.2968,4.59974,2470.077,2020-3-27T13:07:22Z
2020-03-27T11:09:47Z,42.805,6.029,13.2962,4.59973,2470.053,2020-3-27T13:10:25Z
2020-03-27T11:12:50Z,42.805,6.029,13.2966,4.59975,2470.03,2020-3-27T13:13:28Z
2020-03-27T11:15:53Z,42.805,6.029,13.2970,4.59973,2470.04,2020-3-27T13:16:31Z
2020-03-27T11:18:57Z,42.805,6.029,13.2970,4.59973,2470.04,2020-3-27T13:19:35Z
2020-03-27T11:22:00Z,42.805,6.029,13.2967,4.59972,2470.053,2020-3-27T13:22:38Z
2020-03-27T11:25:03Z,42.805,6.029,13.2968,4.59971,2470.04,2020-3-27T13:25:41Z
2020-03-27T11:28:06Z,42.805,6.029,13.2966,4.59971,2470.03,2020-3-27T13:28:45Z
2020-03-27T11:31:10Z,42.805,6.029,13.2964,4.59976,2470.007,2020-3-27T13:31:48Z
2020-03-27T11:34:13Z,42.805,6.029,13.2967,4.59971,2470.053,2020-3-27T13:34:51Z
2020-03-27T11:37:16Z,42.805,6.029,13.2968,4.59971,2470.03,2020-3-27T13:37:54Z
2020-03-27T11:40:20Z,42.805,6.029,13.2967,4.59970,2470.053,2020-3-27T13:40:58Z
2020-03-27T11:43:23Z,42.805,6.029,13.2966,4.59971,2470.017,2020-3-27T13:44:01Z
2020-03-27T11:46:26Z,42.805,6.029,13.2968,4.59971,2470.007,2020-3-27T13:47:04Z
2020-03-27T11:49:29Z,42.805,6.029,13.2967,4.59971,2470.04,2020-3-27T13:50:08Z
2020-03-27T11:52:33Z,42.805,6.029,13.2967,4.59971,2470.017,2020-3-27T13:53:11Z
2020-03-27T11:55:36Z,42.805,6.029,13.2968,4.59973,2470.03,2020-3-27T13:56:14Z
2020-03-27T11:58:39Z,42.805,6.029,13.2968,4.59968,2470.017,2020-3-27T13:59:17Z
2020-03-27T12:01:42Z,42.805,6.029,13.2966,4.59968,2469.993,2020-3-27T14:02:20Z
2020-03-27T12:04:46Z,42.805,6.029,13.2967,4.59970,2470.017,2020-3-27T14:05:24Z
2020-03-27T12:07:49Z,42.805,6.029,13.2965,4.59970,2470.03,2020-3-27T14:08:27Z
2020-03-27T12:10:52Z,42.805,6.029,13.2966,4.59968,2470.017,2020-3-27T14:11:30Z
2020-03-27T12:13:55Z,42.805,6.029,13.2966,4.59968,2469.993,2020-3-27T14:14:33Z
2020-03-27T12:16:59Z,42.805,6.029,13.2967,4.59968,2470.007,2020-3-27T14:17:37Z
2020-03-27T12:20:02Z,42.805,6.029,13.2966,4.59968,2469.993,2020-3-27T14:20:40Z
2020-03-27T12:23:05Z,42.805,6.029,13.2966,4.59969,2470.007,2020-3-27T14:23:43Z
2020-03-27T12:26:08Z,42.805,6.029,13.2971,4.59971,2470.007,2020-3-27T14:26:46Z
2020-03-27T12:29:11Z,42.805,6.029,13.2964,4.59971,2470.007,2020-3-27T14:29:50Z
2020-03-27T12:32:15Z,42.805,6.029,13.2967,4.59971,2469.993,2020-3-27T14:32:53Z
2020-03-27T12:35:18Z,42.805,6.029,13.2968,4.59968,2470.007,2020-3-27T14:35:56Z
2020-03-27T12:38:21Z,42.805,6.029,13.2968,4.59969,2469.947,2020-3-27T14:38:59Z
2020-03-27T12:41:25Z,42.805,6.029,13.2967,4.59971,2469.947,2020-3-27T14:42:03Z
2020-03-27T12:44:28Z,42.805,6.029,13.2964,4.59971,2469.97,2020-3-27T14:45:06Z
2020-03-27T12:47:31Z,42.805,6.029,13.2967,4.59973,2469.984,2020-3-27T14:48:09Z
2020-03-27T12:50:35Z,42.805,6.029,13.2968,4.59971,2470.007,2020-3-27T14:51:13Z
2020-03-27T12:53:38Z,42.805,6.029,13.2968,4.59970,2469.96,2020-3-27T14:54:16Z
2020-03-27T12:56:41Z,42.805,6.029,13.2971,4.59971,2470.007,2020-3-27T14:57:19Z
2020-03-27T12:59:44Z,42.805,6.029,13.2967,4.59971,2469.984,2020-3-27T15:00:22Z
2020-03-27T13:02:48Z,42.805,6.029,13.2969,4.59971,2469.984,2020-3-27T15:03:26Z
2020-03-27T13:05:51Z,42.805,6.029,13.2965,4.59971,2469.97,2020-3-27T15:06:29Z
2020-03-27T13:08:54Z,42.805,6.029,13.2967,4.59970,2470.007,2020-3-27T15:09:32Z
2020-03-27T13:11:58Z,42.805,6.029,13.2968,4.59971,2469.993,2020-3-27T15:12:36Z
2020-03-27T13:15:01Z,42.805,6.029,13.2967,4.59969,2469.97,2020-3-27T15:15:39Z
2020-03-27T13:18:04Z,42.805,6.029,13.2968,4.59970,2469.947,2020-3-27T15:18:42Z
2020-03-27T13:21:07Z,42.805,6.029,13.2968,4.59970,2469.97,2020-3-27T15:21:45Z
2020-03-27T13:24:11Z,42.805,6.029,13.2968,4.59969,2469.97,2020-3-27T15:24:49Z
2020-03-27T13:27:14Z,42.805,6.029,13.2970,4.59970,2469.96,2020-3-27T15:27:52Z
2020-03-27T13:30:17Z,42.805,6.029,13.2966,4.59970,2469.97,2020-3-27T15:30:55Z
2020-03-27T13:33:20Z,42.805,6.029,13.2966,4.59970,2469.993,2020-3-27T15:33:58Z
2020-03-27T13:36:24Z,42.805,6.029,13.2964,4.59969,2469.947,2020-3-27T15:37:02Z
2020-03-27T13:39:27Z,42.805,6.029,13.2962,4.59969,2469.984,2020-3-27T15:40:05Z
2020-03-27T13:42:30Z,42.805,6.029,13.2968,4.59972,2469.96,2020-3-27T15:43:08Z
2020-03-27T13:45:33Z,42.805,6.029,13.2962,4.59971,2469.96,2020-3-27T15:46:11Z
2020-03-27T13:48:37Z,42.805,6.029,13.2967,4.59969,2469.97,2020-3-27T15:49:15Z
2020-03-27T13:51:40Z,42.805,6.029,13.2969,4.59970,2469.984,2020-3-27T15:52:18Z
2020-03-27T13:54:43Z,42.805,6.029,13.2967,4.59971,2470.007,2020-3-27T15:55:21Z
2020-03-27T13:57:46Z,42.805,6.029,13.2965,4.59971,2469.947,2020-3-27T15:58:24Z
2020-03-27T14:00:49Z,42.805,6.029,13.2968,4.59970,2469.947,2020-3-27T16:01:28Z
2020-03-27T14:03:53Z,42.805,6.029,13.2969,4.59969,2469.923,2020-3-27T16:04:31Z
2020-03-27T14:06:56Z,42.805,6.029,13.2967,4.59971,2469.97,2020-3-27T16:07:34Z
2020-03-27T14:09:59Z,42.805,6.029,13.2966,4.59970,2469.979,2020-3-27T16:10:37Z
2020-03-27T14:13:02Z,42.805,6.029,13.2967,4.59968,2469.947,2020-3-27T16:13:40Z
2020-03-27T14:16:06Z,42.805,6.029,13.2968,4.59969,2469.923,2020-3-27T16:16:44Z
2020-03-27T14:19:09Z,42.805,6.029,13.2964,4.59970,2469.937,2020-3-27T16:19:47Z
2020-03-27T14:22:12Z,42.805,6.029,13.2968,4.59971,2469.923,2020-3-27T16:22:50Z
2020-03-27T14:25:15Z,42.805,6.029,13.2967,4.59970,2469.96,2020-3-27T16:25:54Z
2020-03-27T14:28:19Z,42.805,6.029,13.2965,4.59968,2469.96,2020-3-27T16:28:57Z
2020-03-27T14:31:22Z,42.805,6.029,13.2966,4.59968,2469.947,2020-3-27T16:32:00Z
2020-03-27T14:34:25Z,42.805,6.029,13.2971,4.59969,2469.96,2020-3-27T16:35:03Z
2020-03-27T14:37:28Z,42.805,6.029,13.2966,4.59970,2469.937,2020-3-27T16:38:06Z
2020-03-27T14:40:32Z,42.805,6.029,13.2968,4.59973,2469.947,2020-3-27T16:41:10Z
2020-03-27T14:43:35Z,42.805,6.029,13.2970,4.59969,2469.9,2020-3-27T16:44:13Z
2020-03-27T14:46:38Z,42.805,6.029,13.2967,4.59970,2469.947,2020-3-27T16:47:17Z
2020-03-27T14:49:42Z,42.805,6.029,13.2967,4.59969,2469.96,2020-3-27T16:50:20Z
2020-03-27T14:52:45Z,42.805,6.029,13.2968,4.59970,2469.947,2020-3-27T16:53:23Z
2020-03-27T14:55:48Z,42.805,6.029,13.2971,4.59970,2469.923,2020-3-27T16:56:26Z
2020-03-27T14:58:51Z,42.805,6.029,13.2967,4.59968,2469.96,2020-3-27T16:59:29Z
2020-03-27T15:01:55Z,42.805,6.029,13.2973,4.59970,2469.923,2020-3-27T17:02:33Z
2020-03-27T15:04:58Z,42.805,6.029,13.2967,4.59968,2469.9,2020-3-27T17:05:36Z
2020-03-27T15:08:01Z,42.805,6.029,13.2967,4.59969,2469.937,2020-3-27T17:08:39Z
2020-03-27T15:11:04Z,42.805,6.029,13.2969,4.59969,2469.947,2020-3-27T17:11:42Z
2020-03-27T15:14:08Z,42.805,6.029,13.2968,4.59971,2469.923,2020-3-27T17:14:46Z